When you browse on this site, cookies collect data to enhance your experience and personalize the content and advertising you see.
Visit our Privacy Policy to learn more. By continuing to use the site, you agree to this use of cookies and data.
  • En España
  • Lista de países
  • Para 7 días
  • Temperatura del agua
  • El tiempo en el mapa
  • Informadores
  • user-avatar
    Iniciar sesión

    Tiempo cada hora Machalí

    Hoy, 27 Enero, Lunes

    Tiempo Temperatura Precipitaciones Viento Presión Humedad
    00:00 +20°C° 0 mm 0 mps 713 mmHg 60%
    01:00 +22°C° 0 mm 1 mps 713 mmHg 60%
    02:00 +20°C° 0 mm 0 mps 712 mmHg 60%
    03:00 +19°C° 0 mm 0 mps 712 mmHg 60%
    04:00 +19°C° 0 mm 0 mps 712 mmHg 60%
    05:00 +23°C° 0 mm 1 mps 712 mmHg 53%
    06:00 +25°C° 0 mm 1 mps 713 mmHg 46%
    07:00 +28°C° 0 mm 1 mps 713 mmHg 38%
    08:00 +30°C° 0 mm 1 mps 713 mmHg 34%
    09:00 +32°C° 0 mm 2 mps 713 mmHg 29%
    10:00 +35°C° 0 mm 3 mps 713 mmHg 25%
    11:00 +36°C° 0 mm 3 mps 713 mmHg 22%
    12:00 +37°C° 0 mm 3 mps 713 mmHg 20%
    13:00 +38°C° 0 mm 4 mps 713 mmHg 17%
    14:00 +38°C° 0 mm 4 mps 713 mmHg 16%
    15:00 +39°C° 0 mm 5 mps 713 mmHg 16%
    16:00 +37°C° 0 mm 5 mps 712 mmHg 15%
    17:00 +34°C° 0 mm 4 mps 712 mmHg 20%
    18:00 +29°C° 0 mm 3 mps 712 mmHg 25%
    19:00 +26°C° 0 mm 2 mps 712 mmHg 30%
    20:00 +25°C° 0 mm 1 mps 712 mmHg 34%
    21:00 +23°C° 0 mm 1 mps 712 mmHg 38%
    22:00 +22°C° 0 mm 1 mps 711 mmHg 41%
    23:00 +21°C° 0 mm 1 mps 711 mmHg 42%

    Mañana, 28 Enero, Martes

    Tiempo Temperatura Precipitaciones Viento Presión Humedad
    00:00 +19°C° 0 mm 0 mps 711 mmHg 43%
    01:00 +19°C° 0 mm 0 mps 711 mmHg 44%
    02:00 +18°C° 0 mm 0 mps 711 mmHg 45%
    03:00 +18°C° 0 mm 0 mps 710 mmHg 47%
    04:00 +17°C° 0 mm 0 mps 710 mmHg 48%
    05:00 +19°C° 0 mm 0 mps 710 mmHg 43%
    06:00 +23°C° 0 mm 1 mps 711 mmHg 38%
    07:00 +25°C° 0 mm 1 mps 711 mmHg 32%
    08:00 +27°C° 0 mm 1 mps 711 mmHg 29%
    09:00 +29°C° 0 mm 2 mps 711 mmHg 26%
    10:00 +31°C° 0 mm 3 mps 712 mmHg 23%
    11:00 +33°C° 0 mm 3 mps 712 mmHg 22%
    12:00 +34°C° 0 mm 3 mps 711 mmHg 21%
    13:00 +35°C° 0 mm 3 mps 711 mmHg 19%
    14:00 +34°C° 0 mm 4 mps 711 mmHg 22%
    15:00 +33°C° 0 mm 5 mps 711 mmHg 25%
    16:00 +32°C° 0 mm 5 mps 711 mmHg 28%
    17:00 +29°C° 0 mm 4 mps 711 mmHg 37%
    18:00 +26°C° 0 mm 3 mps 711 mmHg 46%
    19:00 +24°C° 0 mm 1 mps 711 mmHg 55%
    20:00 +22°C° 0 mm 1 mps 711 mmHg 61%
    21:00 +21°C° 0 mm 1 mps 711 mmHg 68%
    22:00 +17°C° 0 mm 0 mps 711 mmHg 74%
    23:00 +17°C° 0 mm 0 mps 711 mmHg 75%

    Pasado mañana, 29 Enero, Miércoles

    Tiempo Temperatura Precipitaciones Viento Presión Humedad
    00:00 +16°C° 0 mm 0 mps 711 mmHg 77%
    01:00 +16°C° 0 mm 0 mps 711 mmHg 78%
    02:00 +16°C° 0 mm 0 mps 711 mmHg 79%
    03:00 +16°C° 0 mm 0 mps 711 mmHg 79%
    04:00 +15°C° 0 mm 0 mps 711 mmHg 80%
    05:00 +17°C° 0 mm 0 mps 711 mmHg 72%
    06:00 +21°C° 0 mm 1 mps 712 mmHg 65%
    07:00 +23°C° 0 mm 1 mps 713 mmHg 57%
    08:00 +25°C° 0 mm 2 mps 713 mmHg 50%
    09:00 +27°C° 0 mm 2 mps 713 mmHg 43%
    10:00 +29°C° 0 mm 3 mps 713 mmHg 36%
    11:00 +31°C° 0 mm 3 mps 713 mmHg 32%
    12:00 +33°C° 0 mm 3 mps 713 mmHg 29%
    13:00 +34°C° 0 mm 4 mps 713 mmHg 26%
    14:00 +34°C° 0.1 mm 4 mps 713 mmHg 27%
    15:00 +33°C° 0.1 mm 4 mps 713 mmHg 27%
    16:00 +33°C° 0.1 mm 4 mps 713 mmHg 28%
    17:00 +29°C° 0.1 mm 3 mps 713 mmHg 34%
    18:00 +27°C° 0.1 mm 2 mps 713 mmHg 40%
    19:00 +24°C° 0.1 mm 2 mps 713 mmHg 45%
    20:00 +23°C° 0 mm 1 mps 713 mmHg 49%
    21:00 +21°C° 0 mm 1 mps 713 mmHg 53%
    22:00 +18°C° 0 mm 0 mps 713 mmHg 57%
    23:00 +18°C° 0 mm 0 mps 712 mmHg 58%

    30 Enero, Jueves

    Tiempo Temperatura Precipitaciones Viento Presión Humedad
    00:00 +17°C° 0 mm 0 mps 712 mmHg 59%
    01:00 +16°C° 0 mm 0 mps 712 mmHg 60%
    02:00 +16°C° 0 mm 0 mps 712 mmHg 58%
    03:00 +16°C° 0 mm 0 mps 712 mmHg 56%
    04:00 +18°C° 0 mm 1 mps 712 mmHg 54%
    05:00 +19°C° 0 mm 0 mps 712 mmHg 46%
    06:00 +21°C° 0 mm 0 mps 712 mmHg 38%
    07:00 +24°C° 0 mm 0 mps 713 mmHg 30%
    08:00 +28°C° 0 mm 1 mps 713 mmHg 27%
    09:00 +30°C° 0 mm 2 mps 713 mmHg 24%
    10:00 +33°C° 0 mm 3 mps 713 mmHg 20%
    11:00 +34°C° 0 mm 3 mps 713 mmHg 18%
    12:00 +36°C° 0 mm 3 mps 713 mmHg 16%
    13:00 +37°C° 0 mm 3 mps 713 mmHg 14%
    14:00 +37°C° 0 mm 4 mps 713 mmHg 14%
    15:00 +36°C° 0 mm 4 mps 712 mmHg 14%
    16:00 +36°C° 0 mm 5 mps 712 mmHg 15%
    17:00 +33°C° 0 mm 3 mps 712 mmHg 21%
    18:00 +28°C° 0 mm 2 mps 712 mmHg 27%
    19:00 +24°C° 0 mm 1 mps 712 mmHg 33%
    20:00 +23°C° 0 mm 1 mps 712 mmHg 36%
    21:00 +19°C° 0 mm 0 mps 712 mmHg 40%
    22:00 +18°C° 0 mm 0 mps 712 mmHg 43%
    23:00 +18°C° 0 mm 0 mps 712 mmHg 44%

    31 Enero, Viernes

    Tiempo Temperatura Precipitaciones Viento Presión Humedad
    00:00 +17°C° 0 mm 0 mps 712 mmHg 44%
    01:00 +17°C° 0 mm 0 mps 711 mmHg 45%
    02:00 +17°C° 0 mm 0 mps 711 mmHg 45%
    03:00 +17°C° 0 mm 0 mps 711 mmHg 45%
    04:00 +16°C° 0 mm 0 mps 711 mmHg 44%
    05:00 +19°C° 0 mm 0 mps 712 mmHg 38%
    06:00 +22°C° 0 mm 0 mps 712 mmHg 32%
    07:00 +26°C° 0 mm 1 mps 713 mmHg 25%
    08:00 +28°C° 0 mm 1 mps 713 mmHg 23%
    09:00 +30°C° 0 mm 2 mps 713 mmHg 20%
    10:00 +33°C° 0 mm 3 mps 714 mmHg 18%
    11:00 +34°C° 0 mm 3 mps 713 mmHg 17%
    12:00 +35°C° 0 mm 3 mps 713 mmHg 15%
    13:00 +37°C° 0 mm 3 mps 713 mmHg 14%
    14:00 +36°C° 0 mm 4 mps 713 mmHg 15%
    15:00 +36°C° 0 mm 4 mps 713 mmHg 16%
    16:00 +35°C° 0 mm 4 mps 713 mmHg 16%
    17:00 +31°C° 0 mm 3 mps 713 mmHg 23%
    18:00 +27°C° 0 mm 2 mps 712 mmHg 30%
    19:00 +24°C° 0 mm 1 mps 712 mmHg 37%
    20:00 +22°C° 0 mm 1 mps 712 mmHg 41%
    21:00 +19°C° 0 mm 0 mps 712 mmHg 45%
    22:00 +18°C° 0 mm 0 mps 712 mmHg 49%
    23:00 +17°C° 0 mm 0 mps 712 mmHg 51%

    1 Febrero, Sábado

    Tiempo Temperatura Precipitaciones Viento Presión Humedad
    00:00 +17°C° 0 mm 0 mps 711 mmHg 53%
    01:00 +16°C° 0 mm 0 mps 711 mmHg 55%
    02:00 +16°C° 0 mm 0 mps 711 mmHg 56%
    03:00 +15°C° 0 mm 0 mps 711 mmHg 57%
    04:00 +15°C° 0 mm 0 mps 710 mmHg 58%
    05:00 +17°C° 0 mm 0 mps 711 mmHg 52%
    06:00 +19°C° 0 mm 0 mps 711 mmHg 45%
    07:00 +23°C° 0 mm 1 mps 712 mmHg 39%
    08:00 +25°C° 0 mm 1 mps 712 mmHg 34%
    09:00 +27°C° 0 mm 2 mps 712 mmHg 30%
    10:00 +29°C° 0 mm 3 mps 712 mmHg 26%
    11:00 +31°C° 0 mm 3 mps 712 mmHg 24%
    12:00 +33°C° 0 mm 3 mps 712 mmHg 22%
    13:00 +34°C° 0 mm 4 mps 712 mmHg 20%
    14:00 +33°C° 0 mm 4 mps 712 mmHg 20%
    15:00 +33°C° 0 mm 5 mps 712 mmHg 21%
    16:00 +33°C° 0 mm 5 mps 712 mmHg 21%
    17:00 +28°C° 0 mm 4 mps 712 mmHg 30%
    18:00 +25°C° 0 mm 3 mps 712 mmHg 38%
    19:00 +20°C° 0 mm 2 mps 712 mmHg 47%
    20:00 +20°C° 0 mm 1 mps 712 mmHg 53%
    21:00 +19°C° 0 mm 1 mps 712 mmHg 59%
    22:00 +15°C° 0 mm 0 mps 712 mmHg 66%
    23:00 +15°C° 0 mm 0 mps 712 mmHg 67%
    Mostrar más